2019-038K (44395 NORAD) Tracking and Keplerian Element Data

This shows tracking and keplerian element data for the satellite.

Feedback or suggestion? Click here.




ElementValue
Catalog44395
Name2019-038K
Epoch Orbit428
Epoch Day214.89682533
Epoch Year2019
RAAN176.2887
Inclination97.4903
Eccentricity0.002626
Argument of Perigee145.1826
Mean Anonmoly215.1129
Mean Motion15.11630848
Decay Rate2.74E-06
L11 44395U 19038K 19214.89682533 .00000274 00000-0 19822-4 0 9996
L22 44395 97.4903 176.2887 0026260 145.1826 215.1129 15.11630848 4283

Live tracking and technical data element details for 2019-038K (NORAD 44395). 2019-038K can be tracked NOW for your location showing map with azimuth and elevation plus other details from your city location.

Track the satellite on the map from your city or location and see movement details for azimuth, elevation, latitude, longitude, range, height, and movement on the map or in text.







IsCatalogInMostPopularTable: catalog: 44395, numindb: 19
Update: records affected: 1



GetName: 44395 2019-038K

Hit Count: updated at: Wed, 23 Oct 2019 00:18:01 GMT